(87) Sylvia
ephemeris date magn radius delta ra dec elong phase
Today16 Jun 202613.63.699 AU4.613 AU07h15m+27°56'22.9°6.1°
Opposition13 Feb 202712.43.806 AU2.840 AU10h07m+26°21'166.1°3.6°
(87) Sylvia - 2026-06-16
astro.vanbuitenen.nl


 
-1 year
-1 month
-1 day
Now
+1 day
+1 month
+1 year

The interactive orbit chart above shows the body's path through the solar system and its position at the given date. Green and blue lines are shown perpendicular to the ecliptic plane: Green if the path is above the ecliptic plane, blue if it is below. (Left-click and drag to rotate the view; Right-click and drag to move the view; Use scroll wheel to zoom in our out.)

The orbital elements of Sylvia are:

            e (Eccentricity)                : 0.0942418
            a (Semimajor axis)              : 3.4909308
            i (Inclination)                 : 10.84932
            Ω (Longitude of ascending node) : 72.94601
            ω (Argument of perihelion)      : 267.10152
            M (Mean anomaly)                : 123.91994
            Epoch                           : 2026 Jun 09

            L (Longitude of perihelion)     : 159.99487
            B (Latitude of perihelion)      : -10.83527
            P (Orbital period in years)     : 6.52            
        

The light curve chart below shows the estimated development of the minor planet's magnitude.


The all-sky chart below shows the path of the minor planet over the same period as the light curve. The current position is marked yellow.





The following chart shows the path of the minor planet in the next few days. The field of view is optimized for (~10x50) binoculars and finderscopes.




Ephemerides:
Date       Time       RA (2000)    DEC (2000)    delta   radius  elong  phase   PA    magn
2026-06-16 00:00 UT   07 15 50.2   +27 56 51     4.613    3.699   22.9    6.1    84   13.6 
2026-06-16 07:56 UT   07 16 17.1   +27 56 15     4.615    3.699   22.7    6.1    84   13.6 
2026-06-17 00:00 UT   07 17 11.5   +27 55 01     4.619    3.699   22.3    6.0    84   13.6 
2026-06-18 00:00 UT   07 18 33.0   +27 53 09     4.625    3.700   21.6    5.8    83   13.5 
2026-06-19 00:00 UT   07 19 54.5   +27 51 15     4.631    3.701   21.0    5.7    83   13.5 
2026-06-20 00:00 UT   07 21 16.2   +27 49 19     4.637    3.701   20.4    5.5    83   13.5 
2026-06-21 00:00 UT   07 22 37.9   +27 47 21     4.642    3.702   19.8    5.3    82   13.5 
2026-06-22 00:00 UT   07 23 59.7   +27 45 20     4.647    3.702   19.2    5.2    82   13.5 
2026-06-23 00:00 UT   07 25 21.5   +27 43 17     4.653    3.703   18.5    5.0    81   13.5 
2026-06-24 00:00 UT   07 26 43.4   +27 41 13     4.657    3.704   17.9    4.8    81   13.5 
2026-06-25 00:00 UT   07 28 05.4   +27 39 06     4.662    3.704   17.3    4.7    80   13.5 
2026-06-26 00:00 UT   07 29 27.4   +27 36 57     4.667    3.705   16.7    4.5    79   13.5 
2026-06-27 00:00 UT   07 30 49.5   +27 34 45     4.671    3.706   16.1    4.4    79   13.5 
2026-06-28 00:00 UT   07 32 11.6   +27 32 32     4.676    3.706   15.5    4.2    78   13.5 
2026-06-29 00:00 UT   07 33 33.7   +27 30 17     4.680    3.707   14.9    4.0    77   13.5 
2026-06-30 00:00 UT   07 34 55.9   +27 27 60     4.684    3.707   14.3    3.9    76   13.5 
2026-07-01 00:00 UT   07 36 18.1   +27 25 40     4.688    3.708   13.7    3.7    75   13.5 
2026-07-02 00:00 UT   07 37 40.3   +27 23 19     4.691    3.709   13.2    3.6    74   13.5 
2026-07-03 00:00 UT   07 39 02.5   +27 20 55     4.695    3.709   12.6    3.4    73   13.5 
2026-07-04 00:00 UT   07 40 24.8   +27 18 30     4.698    3.710   12.0    3.3    71   13.4 
2026-07-05 00:00 UT   07 41 47.1   +27 16 03     4.701    3.711   11.5    3.1    70   13.4 
2026-07-06 00:00 UT   07 43 09.3   +27 13 33     4.704    3.711   10.9    3.0    68   13.4 
2026-07-07 00:00 UT   07 44 31.6   +27 11 02     4.707    3.712   10.4    2.8    66   13.4 
2026-07-08 00:00 UT   07 45 53.9   +27 08 28     4.710    3.712    9.9    2.7    64   13.4 
2026-07-09 00:00 UT   07 47 16.2   +27 05 53     4.712    3.713    9.4    2.6    62   13.4 
2026-07-10 00:00 UT   07 48 38.4   +27 03 16     4.715    3.714    8.9    2.4    60   13.4 
2026-07-11 00:00 UT   07 50 00.7   +27 00 37     4.717    3.714    8.4    2.3    57   13.4 
2026-07-12 00:00 UT   07 51 22.9   +26 57 56     4.719    3.715    8.0    2.2    53   13.4 
2026-07-13 00:00 UT   07 52 45.1   +26 55 13     4.721    3.715    7.6    2.1    50   13.4 


    Terminology:
            
    delta:  distance between minor planet and earth in AU
    radius: distance between minor planet and sun in AU
    magn:   magnitude (brightness) estimate    
    ra:     right ascension in hours (24h = 360deg)
    dec:    declination in degrees
    elong:  elongation in degrees (angle sun-earth-minor planet)    
    phase:  phase angle in degrees (angle sun-minor planet-earth)        
    AU:     Astronomical Unit (mean distance between earth and sun: 149597870.7 km
    

Orbital elements provided by the MPC (Minor Planet Center).
Calculations by a modified version of AAPlus, a C# implementation of the AA+ project by PJ Naughter from the algorithms presented in the book "Astronomical Algorithms" by Jean Meeus.
NGC2000 dso catalog and star labels from VizieR as provided by the Strasbourg astronomical Data Center.
Tycho2 catalog from the ESO archive.